timestamp,wind_dir_avg,wind_spd_avg,wind_spd_max_dir,wind_spd_gust,battery_voltage,lat,long
2022-06-03 00:04:00+00:00,26.0,11.24,28.0,12.87,12.57,47.59359,-54.27349
2022-06-03 00:14:00+00:00,25.0,11.63,32.0,13.33,12.33,47.59359,-54.27349
2022-06-03 00:24:00+00:00,30.0,11.73,29.0,12.99,12.33,47.59359,-54.27349
2022-06-03 00:34:00+00:00,31.0,11.14,30.0,12.67,12.33,47.59359,-54.27349
2022-06-03 00:44:00+00:00,31.0,10.55,35.0,11.35,12.33,47.59359,-54.27349
2022-06-03 00:54:00+00:00,30.0,10.94,30.0,12.04,12.33,47.59359,-54.27349
2022-06-03 01:04:00+00:00,25.0,12.23,29.0,13.15,12.33,47.59359,-54.27349
2022-06-03 01:14:00+00:00,25.0,11.64,23.0,13.33,12.33,47.59359,-54.27349
2022-06-03 01:24:00+00:00,24.0,12.36,28.0,13.46,12.33,47.59359,-54.27349
2022-06-03 01:34:00+00:00,25.0,11.24,25.0,13.09,12.33,47.59359,-54.27349
2022-06-03 01:44:00+00:00,25.0,11.7,28.0,13.01,12.33,47.59359,-54.27349
2022-06-03 01:54:00+00:00,25.0,10.85,21.0,11.99,12.33,47.59359,-54.27349
2022-06-03 02:04:00+00:00,18.0,12.11,17.0,14.08,12.33,47.59359,-54.27349
2022-06-03 02:14:00+00:00,22.0,10.98,25.0,12.67,12.41,47.59359,-54.27349
2022-06-03 02:24:00+00:00,24.0,11.05,19.0,12.65,12.41,47.59359,-54.27349
2022-06-03 02:34:00+00:00,24.0,10.77,31.0,12.0,12.41,47.59359,-54.27349
2022-06-03 02:44:00+00:00,26.0,11.35,20.0,12.68,12.41,47.59359,-54.27349
2022-06-03 02:54:00+00:00,24.0,10.49,27.0,12.48,12.41,47.59359,-54.27349
2022-06-03 03:04:00+00:00,29.0,11.51,29.0,11.52,12.41,47.59359,-54.27349
2022-06-03 03:14:00+00:00,32.0,9.81,35.0,10.76,12.33,47.59359,-54.27349
2022-06-03 03:24:00+00:00,27.0,11.18,29.0,12.35,12.33,47.59359,-54.27349
2022-06-03 03:34:00+00:00,28.0,9.39,35.0,10.65,12.33,47.59359,-54.27349
2022-06-03 03:44:00+00:00,315.0,0.01,31.0,0.0,12.33,47.59359,-54.27349
2022-06-03 03:54:00+00:00,16.0,10.44,16.0,10.45,12.33,47.59359,-54.27349
2022-06-03 04:04:00+00:00,315.0,0.01,17.0,0.0,12.33,47.59359,-54.27349
2022-06-03 04:14:00+00:00,31.0,10.09,31.0,10.46,12.25,47.59359,-54.27349
2022-06-03 04:24:00+00:00,29.0,9.29,31.0,11.06,12.25,47.59359,-54.27349
2022-06-03 04:34:00+00:00,315.0,0.01,31.0,0.0,12.25,47.59359,-54.27349
2022-06-03 04:44:00+00:00,341.0,11.1,341.0,11.12,12.25,47.59359,-54.27349
2022-06-03 04:54:00+00:00,347.0,12.28,349.0,12.65,12.25,47.59359,-54.27349
2022-06-03 05:04:00+00:00,348.0,12.39,348.0,14.57,12.25,47.59359,-54.27349
2022-06-03 05:14:01+00:00,315.0,0.01,344.0,0.0,12.25,47.59359,-54.27349
2022-06-03 05:24:01+00:00,315.0,0.01,335.0,0.0,12.25,47.59359,-54.27349
2022-06-03 05:34:01+00:00,17.0,12.43,14.0,13.84,12.25,47.59359,-54.27349
2022-06-03 05:44:01+00:00,20.0,11.03,23.0,12.21,12.25,47.59359,-54.27349
2022-06-03 05:54:01+00:00,315.0,0.01,22.0,0.0,12.25,47.59359,-54.27349
2022-06-03 06:04:01+00:00,20.0,9.96,25.0,10.77,12.25,47.59359,-54.27349
2022-06-03 06:14:01+00:00,27.0,9.33,20.0,9.86,12.17,47.59359,-54.27349
2022-06-03 06:24:01+00:00,42.0,8.64,44.0,8.75,12.17,47.59359,-54.27349
2022-06-03 06:34:01+00:00,23.0,10.29,26.0,11.47,12.17,47.59359,-54.27349
2022-06-03 06:44:01+00:00,315.0,0.01,20.0,0.0,12.17,47.59359,-54.27349
2022-06-03 06:54:01+00:00,24.0,10.08,31.0,11.05,12.17,47.59359,-54.27349
2022-06-03 07:04:01+00:00,25.0,9.39,25.0,9.4,12.17,47.59359,-54.27349
2022-06-03 07:14:01+00:00,315.0,0.01,20.0,0.0,12.25,47.59359,-54.27349
2022-06-03 07:24:01+00:00,315.0,0.01,25.0,0.0,12.25,47.59359,-54.27349
2022-06-03 07:34:01+00:00,27.0,9.29,18.0,10.32,12.25,47.59359,-54.27349
2022-06-03 07:44:01+00:00,33.0,10.23,31.0,10.53,12.25,47.59359,-54.27349
2022-06-03 07:54:01+00:00,30.0,11.67,30.0,11.68,12.25,47.59359,-54.27349
2022-06-03 08:04:01+00:00,315.0,0.01,18.0,0.0,12.25,47.59359,-54.27349
2022-06-03 08:14:00+00:00,315.0,0.01,7.0,0.0,12.17,47.59359,-54.27349
2022-06-03 08:24:00+00:00,315.0,0.01,19.0,0.0,12.17,47.59359,-54.27349
2022-06-03 08:34:00+00:00,315.0,0.01,17.0,0.0,12.17,47.59359,-54.27349
2022-06-03 08:44:00+00:00,346.0,10.7,350.0,12.75,12.17,47.59359,-54.27349
2022-06-03 08:54:00+00:00,346.0,12.98,350.0,14.45,12.17,47.59359,-54.27349
2022-06-03 09:04:00+00:00,26.0,9.53,31.0,10.8,12.17,47.59359,-54.27349
2022-06-03 09:14:01+00:00,30.0,10.91,30.0,10.92,12.25,47.59359,-54.27349
2022-06-03 09:24:01+00:00,25.0,10.8,28.0,11.84,12.25,47.59359,-54.27349
2022-06-03 09:34:01+00:00,315.0,0.01,35.0,0.0,12.25,47.59359,-54.27349
2022-06-03 09:44:01+00:00,24.0,10.92,30.0,12.08,12.25,47.59359,-54.27349
2022-06-03 09:54:01+00:00,315.0,0.01,28.0,0.0,12.25,47.59359,-54.27349
2022-06-03 10:04:01+00:00,315.0,0.01,338.0,0.0,12.25,47.59359,-54.27349
2022-06-03 10:14:00+00:00,315.0,0.01,338.0,0.0,12.57,47.59359,-54.27349
2022-06-03 10:24:00+00:00,332.0,9.85,329.0,10.46,12.57,47.59359,-54.27349
2022-06-03 10:34:00+00:00,339.0,9.1,343.0,9.85,12.57,47.59359,-54.27349
2022-06-03 10:44:00+00:00,355.0,10.29,355.0,10.31,12.57,47.59359,-54.27349
2022-06-03 10:54:00+00:00,315.0,0.01,338.0,0.0,12.57,47.59359,-54.27349
2022-06-03 11:04:00+00:00,9.0,10.92,14.0,11.54,12.57,47.59359,-54.27349
2022-06-03 11:14:00+00:00,9.0,11.05,23.0,12.74,13.29,47.59359,-54.27349
2022-06-03 11:24:00+00:00,8.0,11.71,13.0,12.0,13.29,47.59359,-54.27349
2022-06-03 11:34:00+00:00,29.0,10.69,26.0,11.5,13.29,47.59359,-54.27349
2022-06-03 11:44:00+00:00,21.0,10.04,30.0,11.17,13.29,47.59359,-54.27349
2022-06-03 11:54:00+00:00,18.0,10.58,27.0,12.51,13.29,47.59359,-54.27349
2022-06-03 12:04:00+00:00,16.0,10.59,29.0,12.66,13.29,47.59359,-54.27349
2022-06-03 12:14:01+00:00,348.0,10.16,349.0,12.28,13.68,47.59359,-54.27349
2022-06-03 12:24:01+00:00,4.0,9.18,5.0,9.19,13.68,47.59359,-54.27349
2022-06-03 12:34:01+00:00,10.0,11.65,23.0,13.59,13.68,47.59359,-54.27349
2022-06-03 12:44:01+00:00,13.0,8.69,29.0,10.09,13.68,47.59359,-54.27349
2022-06-03 12:54:01+00:00,6.0,8.16,0.0,9.27,13.68,47.59359,-54.27349
2022-06-03 13:04:01+00:00,357.0,9.71,0.0,10.6,13.68,47.59359,-54.27349
2022-06-03 13:14:00+00:00,358.0,9.06,1.0,10.63,13.76,47.59359,-54.27349
2022-06-03 13:24:00+00:00,357.0,10.47,359.0,11.87,13.76,47.59359,-54.27349
2022-06-03 13:34:00+00:00,355.0,8.2,356.0,10.09,13.76,47.59359,-54.27349
2022-06-03 13:44:00+00:00,356.0,9.36,0.0,10.74,13.76,47.59359,-54.27349
2022-06-03 13:54:00+00:00,3.0,8.09,3.0,9.55,13.76,47.59359,-54.27349
2022-06-03 14:04:00+00:00,18.0,9.78,31.0,10.89,13.76,47.59359,-54.27349
2022-06-03 14:14:00+00:00,23.0,7.15,38.0,9.45,14.16,47.59359,-54.27349
2022-06-03 14:24:00+00:00,29.0,11.11,30.0,12.08,14.16,47.59359,-54.27349
2022-06-03 14:34:00+00:00,27.0,11.62,27.0,13.21,14.16,47.59359,-54.27349
2022-06-03 14:44:00+00:00,0.0,9.26,1.0,10.55,14.16,47.59359,-54.27349
2022-06-03 14:54:00+00:00,14.0,9.62,21.0,10.43,14.16,47.59359,-54.27349
2022-06-03 15:04:00+00:00,13.0,9.57,15.0,10.79,14.16,47.59359,-54.27349
2022-06-03 15:14:00+00:00,18.0,9.6,23.0,11.09,14.32,47.59359,-54.27349
2022-06-03 15:24:00+00:00,315.0,0.01,11.0,0.0,14.32,47.59359,-54.27349
2022-06-03 15:34:00+00:00,315.0,0.01,11.0,0.0,14.32,47.59359,-54.27349
2022-06-03 15:44:00+00:00,315.0,0.01,29.0,0.0,14.32,47.59359,-54.27349
2022-06-03 15:54:00+00:00,315.0,0.01,35.0,0.0,14.32,47.59359,-54.27349
2022-06-03 16:04:00+00:00,34.0,8.39,34.0,8.72,14.32,47.59359,-54.27349
2022-06-03 16:14:00+00:00,34.0,7.69,34.0,7.7,14.24,47.59359,-54.27349
2022-06-03 16:24:00+00:00,14.0,8.96,10.0,10.25,14.24,47.59359,-54.27349
2022-06-03 16:34:00+00:00,10.0,10.94,10.0,12.57,14.24,47.59359,-54.27349
2022-06-03 16:44:00+00:00,15.0,7.91,15.0,7.92,14.24,47.59359,-54.27349
2022-06-03 16:54:00+00:00,315.0,0.01,13.0,0.0,14.24,47.59359,-54.27349
2022-06-03 17:04:00+00:00,315.0,0.01,14.0,0.0,14.24,47.59359,-54.27349
2022-06-03 17:14:00+00:00,41.0,7.23,41.0,7.63,13.92,47.59359,-54.27349
2022-06-03 17:24:00+00:00,40.0,9.4,36.0,10.44,13.92,47.59359,-54.27349
2022-06-03 17:34:00+00:00,46.0,9.4,50.0,11.27,13.92,47.59359,-54.27349
2022-06-03 17:44:00+00:00,39.0,7.53,47.0,8.65,13.92,47.59359,-54.27349
2022-06-03 17:54:00+00:00,37.0,9.35,36.0,9.53,13.92,47.59359,-54.27349
2022-06-03 18:04:00+00:00,315.0,0.01,35.0,0.0,13.92,47.59359,-54.27349
2022-06-03 18:14:00+00:00,38.0,8.63,38.0,8.64,13.84,47.59359,-54.27349
2022-06-03 18:24:00+00:00,315.0,0.01,14.0,0.0,13.84,47.59359,-54.27349
2022-06-03 18:34:00+00:00,315.0,0.01,19.0,0.0,13.84,47.59359,-54.27349
2022-06-03 18:44:00+00:00,315.0,0.01,19.0,0.0,13.84,47.59359,-54.27349
2022-06-03 18:54:00+00:00,12.0,8.92,12.0,9.95,13.84,47.59359,-54.27349
2022-06-03 19:04:00+00:00,17.0,7.67,17.0,8.16,13.84,47.59359,-54.27349
2022-06-03 19:14:00+00:00,13.0,8.95,13.0,10.48,13.76,47.59359,-54.27349
2022-06-03 19:24:00+00:00,10.0,8.98,10.0,10.31,13.76,47.59359,-54.27349
2022-06-03 19:34:00+00:00,15.0,8.05,16.0,8.71,13.76,47.59359,-54.27349
2022-06-03 19:44:00+00:00,12.0,8.84,12.0,9.79,13.76,47.59359,-54.27349
2022-06-03 19:54:00+00:00,11.0,10.4,11.0,10.41,13.76,47.59359,-54.27349
2022-06-03 20:04:00+00:00,315.0,0.01,14.0,0.0,13.76,47.59359,-54.27349
2022-06-03 20:14:00+00:00,15.0,7.53,17.0,7.97,13.76,47.59359,-54.27349
2022-06-03 20:24:00+00:00,10.0,7.42,10.0,9.4,13.76,47.59359,-54.27349
2022-06-03 20:34:00+00:00,12.0,9.73,10.0,10.64,13.76,47.59359,-54.27349
2022-06-03 20:44:00+00:00,7.0,9.32,5.0,10.53,13.76,47.59359,-54.27349
2022-06-03 20:54:00+00:00,0.0,8.06,2.0,8.84,13.76,47.59359,-54.27349
2022-06-03 21:04:00+00:00,4.0,8.73,6.0,9.77,13.76,47.59359,-54.27349
2022-06-03 21:14:00+00:00,352.0,7.6,355.0,8.69,13.44,47.59359,-54.27349
2022-06-03 21:24:00+00:00,349.0,8.95,348.0,9.98,13.44,47.59359,-54.27349
2022-06-03 21:34:00+00:00,351.0,10.07,352.0,11.5,13.44,47.59359,-54.27349
2022-06-03 21:44:00+00:00,358.0,7.87,358.0,8.41,13.44,47.59359,-54.27349
2022-06-03 21:54:00+00:00,8.0,8.24,8.0,9.51,13.44,47.59359,-54.27349
2022-06-03 22:04:00+00:00,14.0,6.61,15.0,7.39,13.44,47.59359,-54.27349
2022-06-03 22:14:00+00:00,347.0,7.02,343.0,8.46,13.13,47.59359,-54.27349
2022-06-03 22:24:00+00:00,347.0,8.48,351.0,9.47,13.13,47.59359,-54.27349
2022-06-03 22:34:00+00:00,350.0,9.81,352.0,11.11,13.13,47.59359,-54.27349
2022-06-03 22:44:00+00:00,349.0,11.53,348.0,12.84,13.13,47.59359,-54.27349
2022-06-03 22:54:00+00:00,358.0,8.79,0.0,10.1,13.13,47.59359,-54.27349
2022-06-03 23:04:00+00:00,14.0,8.72,19.0,11.06,13.13,47.59359,-54.27349
2022-06-03 23:14:00+00:00,28.0,8.77,26.0,10.4,12.73,47.59359,-54.27349
2022-06-03 23:24:00+00:00,35.0,8.66,40.0,9.62,12.73,47.59359,-54.27349
2022-06-03 23:34:00+00:00,38.0,7.98,40.0,9.07,12.73,47.59359,-54.27349
2022-06-03 23:44:00+00:00,355.0,6.99,357.0,7.76,12.73,47.59359,-54.27349
2022-06-03 23:54:00+00:00,35.0,8.48,38.0,9.37,12.73,47.59359,-54.27349
